Погода в Новом Батако

Россия / Республика Северная Осетия — Алания     43°12′49″N   44°29′30″E
темп.,
°C
ветер,
м/с
пор.,
м/с
влажн.,
%
обл.,
%
осадки,
мм/ч
давл.,
гПа
погр.,
м
25 октября, пн
пн2500:00+10с0178100 0.0 101610
03:00+10з2483100 0.0 1018155
06:00+5сз81293100 1.1 1022615
09:00+4сз3495100 3.7 1026674
12:00+3зсз3697100 0.8 1028406
15:00+3з3596100 1.5 1029616
18:00+3з2496100 0.6 1031462
21:00+3з2496100 1.6 1032582
26 октября, вт
вт2600:00+3юз119485 0.4 1032258
03:00+3зюз119384 0.4 103269
06:00+2з119639 0.0 103359
09:00+4всв018157 0.0 1033466
12:00+6в116499 0.0 10311086
15:00+6всв1160100 0.0 1031977
18:00+6в116199 0.0 103141
21:00+4в22765 0.0 103231
27 октября, ср
ср2700:00+2в22831 0.0 103123
03:00+1в22871 0.0 103128
06:000в22905 0.0 103124
09:00+4в23704 0.0 1030335
12:00+9в34520 0.0 1027697
15:00+9всв44480 0.0 1026690
18:00+5всв35680 0.0 102794
21:00+4в22800 0.0 102735
28 октября, чт
чт2800:00+3юв01800 0.0 102610
03:00+2зюз11820 0.0 102610
06:00+2з11840 0.0 102610
09:00+6зюз11630 0.0 1026173
12:00+12зсз22460 0.0 1024441
15:00+13зсз22440 0.0 1023541
18:00+8ссз11640 0.0 102410
21:00+7зюз00670 0.0 102410
29 октября, пт
пт2900:00+6ю11690 0.0 102410
03:00+5ююз11720 0.0 102410
06:00+4зюз11780 0.0 102510
09:00+8з11630 0.0 1026175
12:00+13ссз22426 0.0 1024678
15:00+13ссз214096 0.0 1024755
18:00+8ссв115725 0.0 102611
21:00+7в11625 0.0 102610